Regional Weather Roundup
Issued by NWS

Home | Current Version | Previous Version | Text Only | Print | Product List | Glossary Off
Versions: 1 2 3 4 5 6 7 8 9 10 11 12 13 14 15 16 17 18 19 20 21 22 23 24 25 26 27 28 29 30 31 32 33 34 35 36 37 38 39 40 41 42 43 44 45 46 47 48 49 50

000
ASUS43 KFSD 260710
RWRSD

WEATHER ROUNDUP FOR SOUTH DAKOTA
NATIONAL WEATHER SERVICE SIOUX FALLS SD
200 AM CDT SUN OCT 26 2014

NOTE: "FAIR" INDICATES FEW OR NO CLOUDS BELOW 12,000 FEET WITH NO
SIGNIFICANT WEATHER AND/OR OBSTRUCTIONS TO VISIBILITY.


SDZ001>005-009-010-012>017-260800-
NORTHWEST AND NORTH CENTRAL SOUTH DAKOTA

CITY           SKY/WX    TMP DP  RH WIND       PRES   REMARKS
BUFFALO          N/A     50  32  50 S21       29.62F
FAITH            N/A     50  32  50 SE23G32   29.77F
MOBRIDGE       CLEAR     51  31  46 SE17      29.84F
$$

SDZ012>016-024>037-041>051-057-063-072>074-260800-
SOUTHWEST AND SOUTH CENTRAL SOUTH DAKOTA

CITY           SKY/WX    TMP DP  RH WIND       PRES   REMARKS
RAPID CTY ARPT CLOUDY    48  37  65 SE7       29.76F
PIERRE         CLEAR     47  35  63 E9        29.86F
CUSTER         PTCLDY    53  31  42 W9        29.89F
ELLSWORTH AFB  CLOUDY    54  38  55 S10       29.74F
PHILIP         PTCLDY    47  34  60 E9        29.82F
PINE RIDGE     PTCLDY    59  46  62 S18G28    29.80F
SPEARFISH      FAIR      57  32  38 CALM      29.72F
WINNER         FAIR      54  33  45 SE18      29.88F
$$

SDZ004>011-016>023-039-040-260800-
NORTHEAST SOUTH DAKOTA

CITY           SKY/WX    TMP DP  RH WIND       PRES   REMARKS
ABERDEEN       CLEAR     36  30  79 SE8       29.94F
WATERTOWN      CLEAR     42  30  62 SE6       29.99F
SISSETON         N/A     34  27  75 S5        29.98F WCI  30
$$

SDZ017-020-022-023-036>040-048>070-260800-
SOUTHEAST SOUTH DAKOTA

CITY           SKY/WX    TMP DP  RH WIND       PRES   REMARKS
SIOUX FALLS    CLEAR     40  32  73 E5        30.00F
HURON          CLEAR     44  31  60 SE9       29.95F
CHAMBERLAIN    CLEAR     45  34  66 SE8       29.91F
MITCHELL       CLEAR     46  35  65 SE9       29.96F
YANKTON        CLEAR     46  34  61 E6        29.98F
$$

ABBREVIATIONS USED IN REMARKS
   TC - TEMPERATURE IN CELSIUS
  WCI - WIND CHILL INDEX
   HX - HEAT INDEX
  VSB - VISIBILITY




USA.gov is the U.S. government's official web portal to all federal, state and local government web resources and services.